Voltar ao catálogo

STARLINK-36320

AtivoComunicaçõesVLEO
NORAD 68090·PAYLOAD·🇺🇸 United States

Lançado Mar 4, 2026 de Vandenberg Space Force Base

Loading…

Próximas Passagens (próximas 24 horas)

TLE

AtualizadoSource: CelesTrak SupGP

Época: Sep 15, 2026, 02:46 UTC

1 68090C 26042X   26258.11576389  .00044076  00000+0  13026-2 0  2582
2 68090  53.1594  14.6263 0001185  93.0306  18.7635 15.34359457    17

Acompanhe STARLINK-36320 em tempo real com AllMySat

Download on the App Store